Weather History for Window Rock, AZ

Change the Weather History Date:

Friday, May 16, 2014

  Actual Average Record
Temperature  
Mean Temperature 56 °F -  
Max Temperature 82 °F 70 °F 89 °F (1937)
Min Temperature 33 °F 40 °F 25 °F (1955)
Degree Days  
Heating Degree Days 9    
Growing Degree Days 6 (Base 50)    
Moisture  
Dew Point 13 °F    
Average Humidity 19    
Maximum Humidity 42    
Minimum Humidity 7    
Precipitation  
Precipitation 0.00 in - - ()
Sea Level Pressure  
Sea Level Pressure 29.98 in    
Wind  
Wind Speed 5 mph (WNW)    
Max Wind Speed 21 mph    
Max Gust Speed 32 mph    
Visibility 10 miles    
Events      
Averages and records for this station are not official NWS values.
T = Trace of Precipitation, MM = Missing Value Source: NWS Daily Summary

Daily Weather History Graph

Daily Weather History Graph

Search for Another Location

Airport:

Trip Planner

Search our weather history database for the weather conditions in past years. The results will help you decide how hot, cold, wet, or windy it might be!

Date:

Astronomy

May. 16, 2014 Rise Set
Actual Time 6:10 AM MDT 8:15 PM MDT
Civil Twilight 5:41 AM MDT 8:43 PM MDT
Nautical Twilight 5:07 AM MDT 9:18 PM MDT
Astronomical Twilight 4:30 AM MDT 9:56 PM MDT
Moon 10:25 PM MDT (5/16) 7:55 AM MDT (5/16)
Length of Visible Light 15h 01m
Length of Day
14h 04m
Waning Gibbous, 95% of the Moon is Illuminated
May 16
Waning Gibbous
May 21
Last Quarter
May 28
New
Jun 5
First Quarter
Jun 12
Full

Hourly Weather History & Observations

Time (MDT) Temp. Windchill Dew Point Humidity Pressure Visibility Wind Dir Wind Speed Gust Speed Precip Events Conditions
12:53 AM 43.0 °F - 12.0 °F 28% 30.07 in 10.0 mi Calm Calm - N/A   Clear
1:53 AM 36.0 °F 32.1 °F 10.9 °F 36% 30.10 in 10.0 mi SSW 4.6 mph - N/A   Clear
2:53 AM 37.0 °F - 10.9 °F 34% 30.07 in 10.0 mi Calm Calm - N/A   Clear
3:53 AM 39.0 °F 35.7 °F 12.0 °F 33% 30.04 in 10.0 mi NE 4.6 mph - N/A   Clear
4:53 AM 33.1 °F - 12.0 °F 42% 30.06 in 10.0 mi Calm Calm - N/A   Clear
5:53 AM 34.0 °F - 12.0 °F 40% 30.08 in 10.0 mi Calm Calm - N/A   Clear
6:53 AM 36.0 °F 33.3 °F 12.9 °F 39% 30.08 in 10.0 mi NNE 3.5 mph - N/A   Clear
7:53 AM 46.9 °F - 15.1 °F 28% 30.05 in 10.0 mi Calm Calm - N/A   Clear
8:53 AM 55.9 °F - 15.1 °F 20% 30.05 in 10.0 mi Calm Calm - N/A   Clear
9:53 AM 68.0 °F - 15.1 °F 13% 29.99 in 10.0 mi Calm Calm - N/A   Clear
10:53 AM 73.9 °F - 15.1 °F 11% 29.96 in 10.0 mi West 9.2 mph 21.9 mph N/A   Clear
11:42 AM 75.9 °F - 16.0 °F 10% 30.25 in 10.0 mi West 17.3 mph 25.3 mph N/A   Clear
11:53 AM 75.9 °F - 16.0 °F 10% 29.98 in 10.0 mi West 15.0 mph 25.3 mph N/A   Clear
12:53 PM 77.0 °F - 15.1 °F 10% 29.94 in 10.0 mi NW 11.5 mph - N/A   Partly Cloudy
1:31 PM 78.1 °F - 12.0 °F 8% 30.21 in 10.0 mi NW 10.4 mph 26.5 mph N/A   Clear
1:53 PM 79.0 °F - 10.9 °F 8% 29.94 in 10.0 mi NNW 10.4 mph 23.0 mph N/A   Clear
2:53 PM 77.0 °F - 12.0 °F 8% 29.93 in 10.0 mi WNW 13.8 mph 23.0 mph N/A   Clear
3:53 PM 79.0 °F - 10.9 °F 8% 29.89 in 10.0 mi West 11.5 mph 26.5 mph N/A   Clear
4:53 PM 78.1 °F - 9.0 °F 7% 29.89 in 10.0 mi WNW 10.4 mph 23.0 mph N/A   Clear
5:53 PM 79.0 °F - 9.0 °F 7% 29.87 in 10.0 mi WNW 20.7 mph 32.2 mph N/A   Clear
6:53 PM 75.9 °F - 10.9 °F 8% 29.87 in 10.0 mi WNW 13.8 mph 27.6 mph N/A   Clear
7:53 PM 73.0 °F - 12.9 °F 10% 29.86 in 10.0 mi WNW 10.4 mph 23.0 mph N/A   Clear
9:53 PM 64.0 °F - 16.0 °F 16% 29.81 in 10.0 mi NE 3.5 mph - N/A   Clear
10:53 PM 63.0 °F - 15.1 °F 16% 29.79 in 10.0 mi Calm Calm - N/A   Clear
11:53 PM 57.9 °F - 17.1 °F 20% 29.81 in 10.0 mi Calm Calm - N/A   Clear